[[{"header":{"parameterUnit":"m.s-1","parameterCategory":1,"la1":30.2991,"la2":30.254,"lo1":-89.0895,"lo2":-89.0444,"dy":0.0017,"dx":0.0017,"nx":28,"ny":28,"refTime":"2024-06-21T21:00:00:Z","depth":0,"parameterNumber":2,"parameterNumberName":"U-component_of_WINDS"},"data":[0,0,0,0,0,0,0,0,0,0,0,0,0,0,0,0,0,0,0,0,0,0,0,0,0,0,0,0,0,0,0,0,0,0,0,0,0,0,0,0,0,0,0,0,0,0,0,0,0,0,0,0,0,0,0,0,0,0,2.1292,2.1292,0,2.1341,2.1341,2.1342,2.133,2.1329,2.1329,2.1328,2.1379,2.1381,2.1383,0,0,0,0,0,0,0,0,0,0,0,0,0,2.1191,2.1193,2.1292,2.1293,2.1293,2.1341,2.1341,2.1342,2.1331,2.1329,2.1328,2.1327,2.1378,2.1381,2.1383,0,0,0,0,0,0,0,0,0,0,0,0,0,2.1237,2.1194,2.1292,2.1293,2.1294,2.134,2.1341,2.1342,2.1331,2.1329,2.1328,2.1327,2.1377,2.138,2.1384,2.1432,0,0,2.1394,2.1395,0,0,0,0,0,0,0,0,2.1234,2.1241,2.1292,2.1293,2.1294,2.1328,2.1324,2.1372,2.1331,2.1317,2.1328,2.1326,2.1363,2.1368,2.138,2.1435,2.1437,2.1394,2.1396,2.1398,2.1399,0,0,0,0,0,0,0,2.1231,2.1238,2.1311,2.1293,2.1294,2.1292,2.1297,2.1333,2.1347,2.1318,2.1317,2.1323,2.1363,2.1377,2.1381,2.1438,2.1394,2.1397,2.1399,2.1401,2.1537,2.1538,0,0,0,0,0,0,2.1227,2.1236,2.131,2.1313,2.126,2.1295,2.1301,2.1319,2.1347,2.135,2.1324,2.1322,2.1372,2.1377,2.1383,2.1442,2.1398,2.1401,2.1403,2.1535,2.1537,2.1539,0,0,0,0,0,0,2.1225,2.1234,2.1308,2.1274,2.1283,2.1298,2.1319,2.132,2.1333,2.1352,2.1354,2.1335,2.1371,2.1378,2.142,2.1444,2.1402,2.1405,2.1533,2.1536,2.1538,2.1561,0,0,0,0,0,0,2.1222,2.1233,2.1251,2.1275,2.1285,2.1344,2.132,2.1322,2.1339,2.1337,2.1362,2.1365,2.137,2.1415,2.1424,2.1448,2.1408,2.1531,2.1534,2.1537,2.1558,2.1564,2.1569,0,0,0,0,0,2.1218,2.1256,2.1252,2.1261,2.1308,2.1345,2.1351,2.1356,2.1341,2.136,2.1372,2.1365,2.144,2.142,2.1429,2.1454,2.153,2.1533,2.1537,2.1556,2.1563,2.1569,0,0,0,0,0,0,2.1235,2.1259,2.1255,2.1301,2.1321,2.1343,2.1367,2.1363,2.1388,2.1385,2.139,2.1396,2.1439,2.1451,2.1428,2.1504,2.1483,2.1488,2.1494,2.1501,2.1506,2.1502,2.1411,0,0,0,0,0,2.1243,2.1271,2.1291,2.133,2.134,2.1352,2.1368,2.137,2.1391,2.14,2.1415,2.1436,2.1465,2.1484,2.1511,2.156,2.1566,2.1582,2.1588,2.1592,2.1597,2.1624,2.1632,2.1551,2.1551,2.1551,0,0,2.1262,2.1279,2.1296,2.1333,2.1349,2.1379,2.1359,2.1391,2.1413,2.1405,2.1446,2.1458,2.1482,2.1528,2.155,2.154,2.1621,2.1597,2.16,2.1602,2.1629,2.1637,2.1644,2.1553,2.1553,2.1552,0,0,2.1311,2.1326,2.136,2.1377,2.1401,2.1409,2.1417,2.1441,2.1448,2.1489,2.1484,2.1511,2.156,2.1578,2.1593,2.1651,2.1645,2.166,2.1687,2.1714,2.1721,2.1726,2.1747,2.1755,2.1664,2.1664,2.1664,0,2.1331,2.1374,2.1378,2.1411,2.1428,2.1422,2.1457,2.1473,2.1506,2.1518,2.1506,2.1568,2.1584,2.1635,2.1649,2.1662,2.1672,2.1656,2.1719,2.1725,2.173,2.175,2.1758,2.1666,2.1666,2.1666,2.1665,0,2.1398,2.1429,2.1453,2.1485,2.1505,2.1538,2.1548,2.1568,2.1568,2.1578,2.1621,2.164,2.1671,2.1683,2.1684,2.1735,2.1728,2.1718,2.1697,2.174,2.1759,2.1766,2.1668,2.1668,2.1667,2.1667,0,0,2.1457,2.1491,2.15,2.1515,2.1542,2.1566,2.16,2.1631,2.1648,2.1671,2.17,2.1742,2.1733,2.1751,2.1754,2.1778,2.1823,2.1765,2.1766,2.1775,2.188,2.1888,2.1896,2.182,2.1821,2.1822,2.1878,0,2.1509,2.1568,2.1573,2.1627,2.1656,2.1652,2.1681,2.1702,2.1712,2.1738,2.1749,2.1779,2.1765,2.1776,2.1799,2.1812,2.1844,2.1808,2.1847,2.1848,2.1841,2.1906,2.1914,2.1966,2.1886,2.1887,2.1888,0,2.1577,2.1602,2.1658,2.1682,2.1694,2.1721,2.175,2.1775,2.1799,2.1804,2.1825,2.1825,2.1861,2.1839,2.1889,2.1864,2.1881,2.189,2.1892,2.1895,2.187,2.1912,2.1982,2.199,2.19,2.1899,2.1898,0,2.1615,2.1662,2.1703,2.1715,2.1744,2.1763,2.1776,2.1799,2.1817,2.1843,2.1855,2.1885,2.1901,2.1924,2.1933,2.1916,2.1983,2.1961,2.1989,2.1989,2.2002,2.2001,2.2077,2.2013,2.2013,2.2013,2.2013,0,2.1671,2.1706,2.172,2.1745,2.1784,2.179,2.1829,2.1841,2.1862,2.1889,2.1888,2.1914,2.1923,2.1951,2.1958,2.1999,2.2006,2.2012,2.2013,2.2012,2.2011,2.2023,2.2019,2.2015,2.2015,2.2014,2.2014,0,2.172,2.1731,2.1775,2.1799,2.1806,2.1834,2.1855,2.1879,2.1889,2.1924,2.1933,2.1949,2.1982,2.1992,2.2032,2.2037,2.2084,2.2083,2.2076,2.2076,2.2103,2.2101,2.2189,2.2201,2.2129,2.213,2.213,0,2.1756,2.1782,2.181,2.1828,2.1842,2.1871,2.189,2.1898,2.1918,2.1948,2.1969,2.2001,2.2027,2.208,2.2096,2.2126,2.2125,2.2154,2.213,2.2128,2.2126,2.2124,2.2127,2.2159,2.2159,2.216,2.216,0,2.1818,2.1822,2.1849,2.1879,2.1901,2.1925,2.1948,2.1963,2.1974,2.1997,2.203,2.2051,2.2092,2.2124,2.2156,2.217,2.2167,2.2168,2.2176,2.2175,2.217,2.2173,2.2089,2.2166,2.2165,2.2165,2.2165,2.2164,2.1861,2.1885,2.1908,2.1939,2.1957,2.1979,2.2003,2.2016,2.2044,2.2078,2.2081,2.2117,2.2141,2.2183,2.2199,2.2228,2.222,2.2231,2.2234,2.2237,2.2239,2.2166,2.2234,2.2234,2.2233,2.2233,2.2233,0,2.1923,2.1938,2.1967,2.1999,2.2023,2.2018,2.2044,2.2065,2.2096,2.2119,2.2145,2.2184,2.2216,2.2234,2.2266,2.2286,2.2286,2.2294,2.2293,2.2296,2.2244,2.2234,2.2294,2.2294,2.2294,2.2294,2.2294,2.2294,2.1959,2.1999,2.2006,2.2056,2.2071,2.2106,2.2121,2.2141,2.2159,2.2203,2.2229,2.2241,2.2262,2.2296,2.2325,2.233,2.2341,2.2351,2.2355,2.2306,2.23,2.2294,2.2284,2.2353,2.2353,2.2404,2.2404,2.2405]},{"header":{"parameterUnit":"m.s-1","parameterCategory":1,"la1":30.2991,"la2":30.254,"lo1":-89.0895,"lo2":-89.0444,"dy":0.0017,"dx":0.0017,"nx":28,"ny":28,"refTime":"2024-06-21T21:00:00:Z","depth":0,"parameterNumber":3,"parameterNumberName":"V-component_of_WINDS"},"data":[0,0,0,0,0,0,0,0,0,0,0,0,0,0,0,0,0,0,0,0,0,0,0,0,0,0,0,0,0,0,0,0,0,0,0,0,0,0,0,0,0,0,0,0,0,0,0,0,0,0,0,0,0,0,0,0,0,0,0.1298,0.1297,0,0.1253,0.1252,0.1252,0.1216,0.1216,0.1215,0.1215,0.1168,0.1167,0.1167,0,0,0,0,0,0,0,0,0,0,0,0,0,0.1351,0.1351,0.1298,0.1297,0.1297,0.1253,0.1252,0.1251,0.1216,0.1216,0.1215,0.1215,0.1169,0.1168,0.1166,0,0,0,0,0,0,0,0,0,0,0,0,0,0.1319,0.135,0.1298,0.1274,0.1271,0.1253,0.1252,0.1251,0.1216,0.1216,0.1215,0.1215,0.1169,0.1168,0.1166,0.1168,0,0,0.1162,0.1162,0,0,0,0,0,0,0,0,0.1321,0.1317,0.1278,0.1275,0.1272,0.1239,0.1254,0.1223,0.1216,0.1237,0.1215,0.1214,0.1192,0.1189,0.1182,0.1166,0.1164,0.1162,0.1161,0.1161,0.116,0,0,0,0,0,0,0,0.1323,0.1319,0.128,0.1277,0.1274,0.1264,0.1259,0.1248,0.1218,0.1235,0.1232,0.1228,0.1191,0.1183,0.118,0.1164,0.1162,0.1161,0.116,0.1159,0.1145,0.1145,0,0,0,0,0,0,0.133,0.1321,0.1281,0.1278,0.1296,0.1264,0.1258,0.125,0.1218,0.1213,0.1228,0.1226,0.1186,0.1182,0.1179,0.1177,0.1161,0.1159,0.1159,0.1144,0.1145,0.1145,0,0,0,0,0,0,0.1331,0.1326,0.1283,0.1299,0.1293,0.1263,0.1255,0.125,0.1242,0.1213,0.1207,0.1226,0.1185,0.1181,0.1171,0.1175,0.1159,0.1157,0.1144,0.1144,0.1145,0.1176,0,0,0,0,0,0,0.1333,0.1327,0.1328,0.1299,0.1292,0.1277,0.1255,0.1249,0.124,0.1237,0.1209,0.1204,0.1184,0.1173,0.1169,0.1173,0.1156,0.1143,0.1144,0.1145,0.1174,0.1177,0.118,0,0,0,0,0,0.1335,0.1339,0.1328,0.1324,0.1293,0.1277,0.1273,0.125,0.1241,0.1241,0.1221,0.1205,0.1175,0.1172,0.1168,0.1171,0.1143,0.1144,0.1145,0.1173,0.1177,0.118,0,0,0,0,0,0,0.137,0.1335,0.1323,0.1318,0.1301,0.1271,0.1271,0.1255,0.124,0.1238,0.121,0.1204,0.1197,0.1183,0.118,0.117,0.1157,0.1157,0.118,0.1183,0.1186,0.1189,0.1155,0,0,0,0,0,0.1377,0.1367,0.1337,0.1336,0.1328,0.1301,0.1293,0.1277,0.1258,0.125,0.123,0.1212,0.1198,0.119,0.1176,0.1172,0.1164,0.1172,0.1175,0.1177,0.1178,0.1172,0.1175,0.1148,0.1148,0.1148,0,0,0.1391,0.1371,0.1367,0.1342,0.1327,0.1316,0.1295,0.1286,0.1277,0.1249,0.1238,0.1222,0.12,0.1192,0.1188,0.1181,0.1183,0.1178,0.1181,0.118,0.1173,0.1176,0.1178,0.1149,0.1149,0.1149,0,0,0.1412,0.1397,0.1393,0.1378,0.1355,0.1336,0.1336,0.1308,0.1296,0.1285,0.1262,0.1252,0.123,0.1214,0.1203,0.1216,0.1199,0.1212,0.1227,0.1222,0.1224,0.1226,0.1229,0.1231,0.1212,0.1213,0.1213,0,0.1434,0.1418,0.1393,0.1384,0.1374,0.1347,0.1342,0.1328,0.1302,0.1294,0.1286,0.1256,0.1239,0.1226,0.1229,0.1222,0.1219,0.1215,0.1226,0.1228,0.1229,0.1231,0.1233,0.1214,0.1214,0.1214,0.1214,0,0.1444,0.1433,0.1433,0.1407,0.1396,0.139,0.1363,0.1355,0.1339,0.1321,0.1309,0.1287,0.1268,0.1263,0.1249,0.1248,0.1244,0.1232,0.1217,0.1233,0.1235,0.1236,0.1216,0.1216,0.1215,0.1215,0,0,0.1487,0.1446,0.1447,0.1434,0.1405,0.1396,0.1387,0.1368,0.136,0.1342,0.1333,0.1314,0.1302,0.1289,0.1272,0.1268,0.1277,0.1255,0.1254,0.1259,0.1273,0.1282,0.1284,0.1266,0.1266,0.1266,0.1275,0,0.1502,0.1486,0.1463,0.1453,0.1442,0.1415,0.1408,0.1389,0.1372,0.1359,0.134,0.1326,0.1311,0.1303,0.1298,0.1277,0.1279,0.1276,0.1256,0.1256,0.1262,0.1285,0.1295,0.1304,0.1275,0.1276,0.1276,0,0.1519,0.1502,0.1491,0.1462,0.1456,0.145,0.1429,0.1417,0.1395,0.1382,0.1367,0.1348,0.1336,0.1324,0.1306,0.1305,0.1295,0.1283,0.1283,0.128,0.1267,0.1282,0.1307,0.1308,0.1277,0.1277,0.1277,0,0.1549,0.1524,0.1514,0.1504,0.147,0.1465,0.1451,0.1428,0.1417,0.1398,0.139,0.1371,0.136,0.1344,0.132,0.1313,0.1304,0.129,0.1292,0.1293,0.1291,0.1292,0.1314,0.1287,0.1287,0.1287,0.1287,0,0.1569,0.1563,0.1527,0.152,0.1513,0.1485,0.1478,0.1461,0.144,0.1429,0.1405,0.1395,0.1364,0.135,0.133,0.1318,0.1313,0.1302,0.1297,0.1304,0.1305,0.1297,0.1295,0.1287,0.1287,0.1287,0.1287,0,0.1602,0.1577,0.1564,0.1532,0.1524,0.152,0.1492,0.1484,0.1465,0.1451,0.1447,0.1416,0.1398,0.1372,0.1347,0.1333,0.1323,0.1315,0.1331,0.1328,0.1331,0.133,0.1348,0.1349,0.1322,0.1322,0.1322,0,0.1616,0.161,0.1578,0.1569,0.1555,0.1541,0.1529,0.1502,0.149,0.1463,0.1458,0.1438,0.1421,0.1393,0.1368,0.1348,0.1338,0.1346,0.1335,0.1342,0.1337,0.1337,0.1336,0.1349,0.1349,0.1349,0.135,0,0.1642,0.163,0.1614,0.1594,0.158,0.1563,0.1544,0.1538,0.1506,0.1494,0.1475,0.1462,0.1435,0.1415,0.1391,0.1374,0.1356,0.1353,0.1352,0.1359,0.1368,0.1362,0.1337,0.1353,0.1353,0.1352,0.1352,0.1352,0.1665,0.1658,0.1634,0.1617,0.16,0.1582,0.1573,0.1552,0.1536,0.1512,0.1496,0.1478,0.1453,0.1419,0.1403,0.1388,0.138,0.138,0.1379,0.1379,0.1381,0.1371,0.1383,0.1383,0.1383,0.1383,0.1383,0,0.1689,0.1672,0.1656,0.163,0.1616,0.1601,0.1579,0.1568,0.1552,0.153,0.1513,0.1491,0.1471,0.1444,0.1421,0.1414,0.1405,0.1409,0.1409,0.1405,0.139,0.1392,0.1416,0.1416,0.1416,0.1416,0.1416,0.1416,0.17,0.1687,0.1672,0.165,0.1633,0.1615,0.1603,0.1586,0.1569,0.1545,0.1528,0.1511,0.1486,0.1461,0.1442,0.1434,0.1426,0.1433,0.1423,0.1409,0.1406,0.1403,0.1405,0.1432,0.1432,0.1439,0.1439,0.1439]}]]